Regional Weather Roundup
Issued by NWS

Home | Current Version | Previous Version | Graphics & Text | Print | Product List | Glossary Off
Versions: 1 2 3 4 5 6 7 8 9 10 11 12 13 14 15 16 17 18 19 20 21 22 23 24 25 26 27 28 29 30 31 32 33 34 35 36 37 38 39 40 41 42 43 44 45 46 47 48 49 50

000
ASUS43 KDTX 291201
RWRMI
MICHIGAN HOURLY REGIONAL WEATHER ROUNDUP
NATIONAL WEATHER SERVICE DETROIT/PONTIAC MI
800 AM EDT THU SEP 29 2016

NOTE: "FAIR" INDICATES FEW OR NO CLOUDS BELOW 12,000 FEET WITH NO
SIGNIFICANT WEATHER AND/OR OBSTRUCTION TO VISIBILITY.

MIZ047>049-052>055-059>063-066>070-074>076-081>083-291300-
SOUTHEAST LOWER MICHIGAN

CITY           SKY/WX    TMP DP  RH WIND       PRES   REMARKS
ADRIAN         CLOUDY    59  59 100 NE7       30.06R
6HR MIN TEMP:  57; 6HR MAX TEMP:  59; 6HR PCP:  0.19;

ALMA           CLOUDY    62  58  88 NE14G24   30.16R
ANN ARBOR      CLOUDY    59  59 100 NE6       30.07R
CARO           CLOUDY    60  56  84 NE8G18    30.17R
DETROIT CITY   CLOUDY    60  60 100 NE17G29   30.06R
6HR MIN TEMP:  59; 6HR MAX TEMP:  62; 6HR PCP:  1.48;

DETROIT        CLOUDY    62  60  93 NE7       30.07R
6HR MIN TEMP:  59; 6HR MAX TEMP:  62; 6HR PCP:  1.78;

FLINT          LGT RAIN  60  58  92 NE15      30.13R
6HR MIN TEMP:  58; 6HR MAX TEMP:  62; 6HR PCP:  0.31;

HILLSDALE      CLOUDY    57  55  94 NE5       30.06R
HOWELL         HVY RAIN  59  57  96 NE14G20   30.09R
6HR MIN TEMP:  56; 6HR MAX TEMP:  59;


CITY           SKY/WX    TMP DP  RH WIND       PRES   REMARKS
JACKSON        HVY RAIN  58  58 100 NE10      30.08R
6HR MIN TEMP:  57; 6HR MAX TEMP:  58; 6HR PCP:  0.69;

LAMBERTVILLE   CLOUDY    59  57  94 CALM      30.06R FOG
6HR MIN TEMP:  58; 6HR MAX TEMP:  60;

LANSING        LGT RAIN  59  56  89 NE14      30.12R
6HR MIN TEMP:  55; 6HR MAX TEMP:  59; 6HR PCP:  0.13;

LAPEER         LGT RAIN  60  57  91 NE9G20    30.15R
6HR MIN TEMP:  60; 6HR MAX TEMP:  63; 6HR PCP:  0.12;

MASON          HVY RAIN  58  57  95 NE9       30.09R
MONROE         CLOUDY    60  60  98 SE5       30.05R
6HR MIN TEMP:  58; 6HR MAX TEMP:  60; 6HR PCP:  0.36;

MT. CLEMENS    MOCLDY    60  58  93 NE21G29   30.08R
6HR MIN TEMP:  59; 6HR MAX TEMP:  62; 6HR PCP:  1.38;

PONTIAC        TSTM      58  56  93 NE16G25   30.09R FOG
6HR MIN TEMP:  58; 6HR MAX TEMP:  60; 6HR PCP:  0.91;

PORT HURON     RAIN      59  57  94 NE14      30.14R
TRI CITIES     CLOUDY    62  57  83 NE18G26   30.19R
6HR MIN TEMP:  60; 6HR MAX TEMP:  62;

MIDLAND        CLOUDY    62  56  81 NE13G22   30.19R
6HR MIN TEMP:  59; 6HR MAX TEMP:  62;

TROY           LGT RAIN  60  57  90 NE15G23   30.10R
SAGINAW HB     CLOUDY    61  54  77 NE15      30.17R
$$
MIZ043>046-050>051-056>058-064>065-071>073-077>080-291300-
SOUTHWEST LOWER MICHIGAN

CITY           SKY/WX    TMP DP  RH WIND       PRES   REMARKS
BATTLE CREEK   RAIN      58  58 100 NE9       30.09R FOG
6HR MIN TEMP:  56; 6HR MAX TEMP:  58;

BENTON HARBOR  RAIN      57  54  89 NE5       30.09R FOG
6HR MIN TEMP:  57; 6HR MAX TEMP:  59;

BIG RAPIDS     MOCLDY    58  55  89 NE8G16    30.21R
6HR MIN TEMP:  57; 6HR MAX TEMP:  60;

COLDWATER      CLOUDY    58  58  99 NE7       30.07R
6HR MIN TEMP:  57; 6HR MAX TEMP:  58;

FREMONT        FAIR      57  54  88 NE12      30.18R
HOLLAND        PTCLDY    60  53  77 NE8G18    30.12R
6HR MIN TEMP:  58; 6HR MAX TEMP:  60;

GRAND RAPIDS   CLOUDY    60  54  80 NE17      30.13R
6HR MIN TEMP:  57; 6HR MAX TEMP:  60; 6HR PCP: TRACE;

IONIA          LGT RAIN  58  55  90 NE14G20   30.12R
6HR MIN TEMP:  57; 6HR MAX TEMP:  58; 6HR PCP:  0.01;

KALAMAZOO      LGT RAIN  59  55  87 NE7       30.10R
6HR MIN TEMP:  57; 6HR MAX TEMP:  59; 6HR PCP:  0.67;

LUDINGTON      CLEAR     55  52  91 NE8       30.22S
6HR MIN TEMP:  54; 6HR MAX TEMP:  57;

MARSHALL       CLOUDY    59  58  98 NE6       30.08R
6HR MIN TEMP:  56; 6HR MAX TEMP:  59; 6HR PCP:  0.66;

MOUNT PLEASANT MOCLDY    59  57  91 NE10      30.18S
6HR MIN TEMP:  58; 6HR MAX TEMP:  61;

MUSKEGON       PTCLDY    58  53  84 N13       30.17R
6HR MIN TEMP:  57; 6HR MAX TEMP:  58;

SOUTH HAVEN    LGT RAIN  59  56  91 NE8       30.10R
$$
MIZ016>042-291300-
NORTHERN LOWER MICHIGAN

CITY           SKY/WX    TMP DP  RH WIND       PRES   REMARKS
ALPENA         MOCLDY    59  56  89 NE8       30.34R
6HR MIN TEMP:  57; 6HR MAX TEMP:  62;

BEAVER ISLAND  CLEAR     57  54  91 NE6       30.35R
6HR MIN TEMP:  56; 6HR MAX TEMP:  59;

BELLAIRE       CLEAR     55  54  94 NE6       30.31R
6HR MIN TEMP:  49; 6HR MAX TEMP:  55;

CADILLAC       MOCLDY    54  52  94 NE6       30.26R
CHARLEVOIX     CLEAR     59  56  92 NE10      30.35R
FRANKFORT      CLEAR     58  54  85 NE5       30.28R
GAYLORD        CLOUDY    56  54  93 NE10G22   30.32R FOG
6HR MIN TEMP:  53; 6HR MAX TEMP:  57;

GRAYLING       CLOUDY    58  56  94 NE9       30.30R
HARBOR SPRINGS PTCLDY    56  55  95 E7        30.34R FOG
HOUGHTON LAKE  CLOUDY    58  55  90 NE12G21   30.28R
6HR MIN TEMP:  54; 6HR MAX TEMP:  58;

MANISTEE       CLEAR     57  52  83 NE12      30.25R
OSCODA         CLEAR     60  56  85 NE17G24   30.27R
6HR MIN TEMP:  60; 6HR MAX TEMP:  62;

PELLSTON       CLEAR     56  53  90 NE8       30.35R
6HR MIN TEMP:  45; 6HR MAX TEMP:  56;

ROGERS CITY    CLOUDY    60  57  89 E10G20    30.36R
TRAVERSE CITY  PTCLDY    57  54  89 NE8       30.28R
6HR MIN TEMP:  55; 6HR MAX TEMP:  60;

$$
MIZ007>008-015-291300-
EASTERN UPPER MICHIGAN

CITY           SKY/WX    TMP DP  RH WIND       PRES   REMARKS
KINROSS        CLEAR     50  49  96 NE6       30.38R
6HR MIN TEMP:  50; 6HR MAX TEMP:  54;

MACKINAC ISLAN CLEAR     54  54 100 NE10      30.36R
NEWBERRY       CLEAR     51  50  97 N3        30.38R
6HR MIN TEMP:  50; 6HR MAX TEMP:  53;

S. S. MARIE    CLEAR     53  49  86 NE5       30.38R
6HR MIN TEMP:  53; 6HR MAX TEMP:  57;

MUNISING         N/A     50  50 100 S6        30.39R
6HR MIN TEMP:  50; 6HR MAX TEMP:  59;

$$
MIZ004>006-011>014-085-291300-
CENTRAL UPPER MICHIGAN

CITY           SKY/WX    TMP DP  RH WIND       PRES   REMARKS
MANISTIQUE     CLEAR     51  49  92 N8        30.36R
6HR MIN TEMP:  51; 6HR MAX TEMP:  53;

ESCANABA       CLEAR     55  53  93 N5        30.37R
6HR MIN TEMP:  53; 6HR MAX TEMP:  55;

MENOMINEE      CLEAR     52  50  93 N10       30.35R
6HR MIN TEMP:  52; 6HR MAX TEMP:  53;

SAWYER-GWINN   CLOUDY    54  54 100 N8        30.42R
$$
MIZ001>003-009>011-084-291300-
WESTERN UPPER MICHIGAN

CITY           SKY/WX    TMP DP  RH WIND       PRES   REMARKS
IRON MOUNTAIN  MOCLDY    48  45  89 NW7       30.39R
6HR MIN TEMP:  47; 6HR MAX TEMP:  52;

HOUGHTON       CLOUDY    54  51  90 N6        30.45R
6HR MIN TEMP:  41; 6HR MAX TEMP:  54;

COPPER HARBOR    N/A     57  55  93 NE10      30.45R
6HR MIN TEMP:  57; 6HR MAX TEMP:  58;

IRONWOOD       CLOUDY    53  52  96 NE6       30.47R
6HR MIN TEMP:  46; 6HR MAX TEMP:  53; 6HR PCP:  0.01;

$$

ABBREVIATIONS USED IN REMARKS
   TC - TEMPERATURE IN CELSIUS
  WCI - WIND CHILL INDEX
   HX - HEAT INDEX
  VSB - VISIBILITY




USA.gov is the U.S. government's official web portal to all federal, state and local government web resources and services.